EW6212 Weather Reports


Display with metric or nautical units.
time (UTC)temp
F
wind
direction
speed
MPH
gust
MPH
rain 1hr
in
rain 24hr
in
rain mn
in
humidity
%
barometer
mb
20190219025706 77 112 0.0 0.0 0.00 0.00 0.00 94 1015.4
20190219025205 77 125 0.0 0.0 0.00 0.00 0.00 94 1015.3
20190219024705 77 130 0.0 0.0 0.00 0.00 0.00 94 1015.3
20190219024206 77 135 0.0 0.0 0.00 0.00 0.00 94 1015.3
20190219023705 77 120 0.0 0.0 0.00 0.00 0.00 94 1015.1
20190219023205 77 135 0.0 0.0 0.00 0.00 0.00 94 1015.1
20190219022705 77 123 0.0 0.0 0.00 0.00 0.00 94 1015.1
20190219022205 77 101 0.0 0.0 0.00 0.00 0.00 94 1015.1
20190219021705 77 90 0.0 0.0 0.00 0.00 0.00 94 1015.0
20190219021205 77 79 0.0 0.0 0.00 0.00 0.00 93 1014.9
20190219020705 77 93 0.0 0.0 0.00 0.00 0.00 93 1014.9
20190219020205 77 112 0.0 0.0 0.00 0.00 0.00 93 1014.9
20190219015706 77 131 0.0 0.0 0.00 0.00 0.00 92 1014.9
20190219015205 77 120 0.0 0.0 0.00 0.00 0.00 92 1014.6
20190219014706 77 105 0.0 3.0 0.00 0.00 0.00 92 1014.6
20190219014205 77 57 2.0 3.0 0.00 0.00 0.00 92 1014.6
20190219013706 77 100 3.0 5.0 0.00 0.00 0.00 92 1014.6
20190219013205 78 103 3.0 5.0 0.00 0.00 0.00 91 1014.6
20190219012706 78 102 2.0 3.0 0.00 0.00 0.00 90 1014.4
20190219012205 78 69 1.0 3.0 0.00 0.00 0.00 90 1014.4
20190219011705 78 114 1.0 3.0 0.00 0.00 0.00 90 1014.3
20190219011205 78 82 3.0 6.0 0.00 0.00 0.00 89 1014.3
20190219010705 78 52 3.0 5.0 0.00 0.00 0.00 89 1014.3
20190219010205 78 57 2.0 2.0 0.00 0.00 0.00 89 1014.3
20190219005705 78 133 2.0 5.0 0.00 0.00 0.00 90 1014.3
20190219005206 77 304 2.0 3.0 0.00 0.00 0.00 90 1014.2
20190219004705 76 270 2.0 3.0 0.00 0.00 0.00 91 1014.2
20190219004205 76 270 2.0 2.0 0.00 0.00 0.00 91 1014.2
20190219003706 77 221 0.0 0.0 0.00 0.00 0.00 90 1013.8
20190219003204 77 130 0.0 0.0 0.00 0.00 0.00 90 1013.8
20190219002705 77 158 0.0 0.0 0.00 0.00 0.00 89 1013.6
20190219002205 77 270 0.0 0.0 0.00 0.00 0.00 89 1013.6
20190219001705 77 158 0.0 0.0 0.00 0.00 0.00 90 1013.5
20190219001206 77 76 0.0 0.0 0.00 0.00 0.00 90 1013.5
20190219000705 78 112 0.0 0.0 0.00 0.00 0.00 89 1013.5
20190219000205 78 90 0.0 0.0 0.00 0.00 0.00 87 1013.4
20190218235706 79 90 0.0 0.0 0.00 0.00 0.00 86 1013.4
20190218235205 79 153 0.0 0.0 0.00 0.00 0.00 86 1013.4
20190218234706 79 273 0.0 0.0 0.00 0.00 0.00 85 1013.4
20190218234205 80 111 0.0 0.0 0.00 0.00 0.00 83 1013.4
20190218233705 80 140 0.0 0.0 0.00 0.00 0.00 83 1013.3
20190218233205 81 158 0.0 0.0 0.00 0.00 0.00 82 1013.3
20190218232705 81 158 0.0 0.0 0.00 0.00 0.00 81 1013.1
20190218232205 82 90 0.0 0.0 0.00 0.00 0.00 81 1013.1
20190218231705 82 100 0.0 0.0 0.00 0.00 0.00 79 1013.1
20190218231205 83 132 0.0 0.0 0.00 0.00 0.00 78 1013.1
20190218230705 83 135 0.0 0.0 0.00 0.00 0.00 77 1013.1
20190218230205 83 0 0.0 0.0 0.00 0.00 0.00 77 1013.1
20190218225705 84 348 0.0 0.0 0.00 0.00 0.00 76 1013.1
20190218225205 84 277 0.0 0.0 0.00 0.00 0.00 76 1012.9
20190218224705 84 336 0.0 0.0 0.00 0.00 0.00 75 1012.9
20190218224206 85 356 0.0 0.0 0.00 0.00 0.00 74 1012.9
20190218223705 85 35 0.0 0.0 0.00 0.00 0.00 73 1012.9
20190218223204 85 317 0.0 0.0 0.00 0.00 0.00 73 1012.9
20190218222705 85 321 0.0 0.0 0.00 0.00 0.00 73 1012.7
20190218222205 85 282 0.0 0.0 0.00 0.00 0.00 72 1012.7
20190218221705 86 346 0.0 0.0 0.00 0.00 0.00 71 1012.6
20190218221205 86 353 1.0 7.0 0.00 0.00 0.00 70 1012.6
20190218220705 87 296 2.0 5.0 0.00 0.00 0.00 70 1012.6
20190218220205 87 265 0.0 1.0 0.00 0.00 0.00 68 1012.4
20190218215705 86 328 0.0 0.0 0.00 0.00 0.00 70 1012.4
20190218215204 86 258 0.0 5.0 0.00 0.00 0.00 70 1012.3
20190218214705 87 238 1.0 2.0 0.00 0.00 0.00 66 1012.3
20190218214205 86 218 0.0 0.0 0.00 0.00 0.00 67 1012.3
20190218213705 87 212 0.0 6.0 0.00 0.00 0.00 67 1012.2
20190218213205 88 206 2.0 7.0 0.00 0.00 0.00 66 1012.2
20190218212705 88 230 0.0 3.0 0.00 0.00 0.00 67 1012.2
20190218212205 87 197 0.0 2.0 0.00 0.00 0.00 68 1012.2
20190218211704 86 227 0.0 3.0 0.00 0.00 0.00 71 1012.2
20190218211204 85 202 0.0 0.0 0.00 0.00 0.00 70 1012.2
20190218210705 86 202 1.0 6.0 0.00 0.00 0.00 70 1012.2
20190218210204 86 270 0.0 0.0 0.00 0.00 0.00 70 1012.1
20190218205705 87 225 0.0 0.0 0.00 0.00 0.00 68 1012.1
20190218205206 88 264 1.0 2.0 0.00 0.00 0.00 66 1012.2
20190218204705 88 258 0.0 2.0 0.00 0.00 0.00 67 1012.2
20190218204206 86 232 0.0 0.0 0.00 0.00 0.00 70 1012.2
20190218203705 86 238 1.0 5.0 0.00 0.00 0.00 69 1012.1
20190218203205 86 225 2.0 5.0 0.00 0.00 0.00 69 1012.1
20190218202705 86 275 1.0 5.0 0.00 0.00 0.00 70 1012.1
20190218202205 86 198 1.0 5.0 0.00 0.00 0.00 68 1012.1
20190218201705 86 193 0.0 0.0 0.00 0.00 0.00 68 1012.2
20190218201205 87 235 3.0 6.0 0.00 0.00 0.00 67 1012.2
20190218200705 87 244 0.0 0.0 0.00 0.00 0.00 67 1012.2
20190218200205 87 265 0.0 0.0 0.00 0.00 0.00 67 1012.1
20190218195705 88 258 0.0 1.0 0.00 0.00 0.00 66 1012.1
20190218195205 89 200 1.0 2.0 0.00 0.00 0.00 65 1012.1
20190218194705 89 241 5.0 9.0 0.00 0.00 0.00 65 1012.1
20190218194205 89 240 2.0 9.0 0.00 0.00 0.00 65 1012.1
20190218193705 89 225 6.0 9.0 0.00 0.00 0.00 68 1012.4
20190218193205 89 176 3.0 6.0 0.00 0.00 0.00 70 1012.4
20190218192704 87 220 4.0 6.0 0.00 0.00 0.00 72 1012.5
20190218192205 86 233 5.0 6.0 0.00 0.00 0.00 75 1012.5
20190218191705 89 276 5.0 6.0 0.00 0.00 0.00 72 1012.5
20190218191205 87 192 2.0 6.0 0.00 0.00 0.00 75 1012.7
20190218190705 85 260 5.0 6.0 0.00 0.00 0.00 78 1012.7
20190218190205 84 291 6.0 7.0 0.00 0.00 0.00 79 1012.9
20190218185704 84 291 5.0 7.0 0.00 0.00 0.00 80 1012.9
20190218185205 85 283 5.0 7.0 0.00 0.00 0.00 78 1013.1
20190218184705 87 237 6.0 9.0 0.00 0.00 0.00 75 1013.1
20190218184205 86 212 5.0 8.0 0.00 0.00 0.00 76 1013.1
20190218183705 87 250 5.0 8.0 0.00 0.00 0.00 75 1013.2
20190218183205 85 238 6.0 9.0 0.00 0.00 0.00 77 1013.2
20190218182705 85 258 4.0 9.0 0.00 0.00 0.00 77 1013.3
20190218182205 86 220 8.0 10.0 0.00 0.00 0.00 75 1013.3
20190218181705 86 270 5.0 7.0 0.00 0.00 0.00 78 1013.4
20190218181205 84 239 5.0 9.0 0.00 0.00 0.00 79 1013.4
20190218180706 86 235 5.0 9.0 0.00 0.00 0.00 77 1013.4
20190218180205 86 176 6.0 9.0 0.00 0.00 0.00 79 1013.4
20190218175704 84 212 6.0 8.0 0.00 0.00 0.00 81 1013.4
20190218175205 83 194 5.0 9.0 0.00 0.00 0.00 82 1013.7
20190218174705 85 237 7.0 9.0 0.00 0.00 0.00 80 1013.7
20190218174204 86 202 5.0 8.0 0.00 0.00 0.00 81 1013.7
20190218173705 83 223 5.0 9.0 0.00 0.00 0.00 84 1014.0
20190218173205 82 199 5.0 7.0 0.00 0.00 0.00 85 1014.0
20190218172705 82 227 6.0 8.0 0.00 0.00 0.00 86 1014.0
20190218172205 83 203 6.0 8.0 0.00 0.00 0.00 84 1014.0
20190218171706 84 200 5.0 9.0 0.00 0.00 0.00 84 1014.0
20190218171205 83 193 5.0 12.0 0.00 0.00 0.00 84 1014.1
20190218170704 83 177 6.0 10.0 0.00 0.00 0.00 84 1014.1
20190218170205 83 181 6.0 12.0 0.00 0.00 0.00 86 1014.2
20190218165705 83 188 5.0 8.0 0.00 0.00 0.00 86 1014.2
20190218165205 82 202 6.0 9.0 0.00 0.00 0.00 87 1014.3
20190218164705 82 191 5.0 7.0 0.00 0.00 0.00 89 1014.3
20190218164204 81 192 4.0 10.0 0.00 0.00 0.00 91 1014.3
20190218163704 79 165 6.0 9.0 0.00 0.00 0.00 94 1014.6
20190218163205 79 255 5.0 8.0 0.00 0.00 0.00 96 1014.6
20190218162704 78 199 5.0 8.0 0.00 0.00 0.00 98 1014.7
20190218162205 78 221 5.0 7.0 0.00 0.00 0.00 98 1014.7
20190218161705 78 202 7.0 9.0 0.00 0.00 0.00 98 1014.7
20190218161205 78 183 7.0 9.0 0.00 0.00 0.00 98 1014.7
20190218160705 78 225 8.0 10.0 0.00 0.00 0.00 98 1014.7
20190218160205 77 210 7.0 9.0 0.00 0.00 0.00 99 1014.5
20190218155704 77 194 6.0 8.0 0.00 0.00 0.00 99 1014.5
20190218155205 77 218 5.0 9.0 0.00 0.00 0.00 99 1014.4
20190218154705 77 211 7.0 9.0 0.00 0.00 0.00 99 1014.4
20190218154204 77 202 5.0 9.0 0.00 0.00 0.00 99 1014.4
20190218153706 76 180 7.0 10.0 0.00 0.00 0.00 99 1014.5
20190218153205 77 191 7.0 10.0 0.00 0.00 0.00 99 1014.5
20190218152704 77 193 5.0 8.0 0.00 0.00 0.00 99 1014.4
20190218152205 77 195 6.0 8.0 0.00 0.00 0.00 99 1014.4
20190218151705 77 209 6.0 9.0 0.00 0.00 0.00 99 1014.4
20190218151204 76 218 5.0 9.0 0.00 0.00 0.00 99 1014.2
20190218150705 77 220 5.0 10.0 0.00 0.00 0.00 99 1014.2
20190218150204 77 204 7.0 9.0 0.00 0.00 0.00 99 1014.1
20190218145704 76 200 6.0 8.0 0.00 0.00 0.00 99 1014.1
20190218145205 76 216 5.0 7.0 0.00 0.00 0.00 99 1013.9
20190218144704 76 191 6.0 9.0 0.00 0.00 0.00 99 1013.9
20190218144204 76 225 9.0 10.0 0.00 0.00 0.00 99 1013.9
20190218143704 76 202 5.0 8.0 0.00 0.00 0.00 99 1013.7
20190218143205 76 196 7.0 8.0 0.00 0.00 0.00 99 1013.7
20190218142705 76 247 6.0 8.0 0.00 0.00 0.00 99 1013.6
20190218142205 76 212 7.0 10.0 0.00 0.00 0.00 99 1013.6
20190218141705 76 201 6.0 9.0 0.00 0.00 0.00 99 1013.6
20190218141204 76 163 4.0 6.0 0.00 0.00 0.00 99 1013.5
20190218140705 75 191 4.0 6.0 0.00 0.00 0.00 99 1013.5
20190218140205 74 189 3.0 6.0 0.00 0.00 0.00 99 1013.4
20190218135705 74 189 0.0 0.0 0.00 0.00 0.00 99 1013.4
20190218135205 74 176 1.0 6.0 0.00 0.00 0.00 99 1013.1
20190218134705 73 174 0.0 0.0 0.00 0.00 0.00 99 1013.1
20190218134205 73 158 0.0 1.0 0.00 0.00 0.00 99 1013.1
20190218133704 73 169 0.0 0.0 0.00 0.00 0.00 99 1013.0
20190218133207 73 177 0.0 0.0 0.00 0.00 0.00 99 1013.0
20190218132707 73 171 0.0 0.0 0.00 0.00 0.00 99 1012.8
20190218132207 72 195 0.0 0.0 0.00 0.00 0.00 99 1012.8
20190218131708 72 174 0.0 0.0 0.00 0.00 0.00 99 1012.8
20190218131207 71 210 0.0 0.0 0.00 0.00 0.00 99 1012.7
20190218130706 71 167 0.0 0.0 0.00 0.00 0.00 99 1012.7
20190218130208 70 112 0.0 0.0 0.00 0.00 0.00 99 1012.4
20190218125707 70 110 0.0 0.0 0.00 0.00 0.00 99 1012.4
20190218125208 70 158 0.0 0.0 0.00 0.00 0.00 99 1012.3
20190218124707 69 158 0.0 0.0 0.00 0.00 0.00 99 1012.3
20190218124207 69 158 0.0 0.0 0.00 0.00 0.00 99 1012.3
20190218123707 68 119 0.0 0.0 0.00 0.00 0.00 99 1012.0
20190218123207 68 135 0.0 0.0 0.00 0.00 0.00 99 1012.0
20190218122707 68 116 0.0 0.0 0.00 0.00 0.00 99 1012.0
20190218122207 67 108 0.0 0.0 0.00 0.00 0.00 99 1012.0
20190218121707 67 95 0.0 0.0 0.00 0.00 0.00 99 1012.0
20190218121207 67 112 0.0 0.0 0.00 0.00 0.00 99 1011.9
20190218120707 67 112 0.0 0.0 0.00 0.00 0.00 99 1011.9
20190218120208 67 135 0.0 0.0 0.00 0.00 0.00 99 1011.8
20190218115707 67 135 0.0 0.0 0.00 0.00 0.00 99 1011.8
20190218115207 67 135 0.0 0.0 0.00 0.00 0.00 99 1011.6
20190218114707 67 45 0.0 0.0 0.00 0.00 0.00 99 1011.6
20190218114207 67 45 0.0 0.0 0.00 0.00 0.00 99 1011.6
20190218113707 67 158 0.0 0.0 0.00 0.00 0.00 99 1011.5
20190218113206 67 180 0.0 0.0 0.00 0.00 0.00 99 1011.5
20190218112707 66 202 0.0 0.0 0.00 0.00 0.00 99 1011.3
20190218112207 66 211 0.0 0.0 0.00 0.00 0.00 99 1011.3
20190218111707 66 202 0.0 0.0 0.00 0.00 0.00 99 1011.3
20190218111207 67 167 0.0 0.0 0.00 0.00 0.00 99 1011.2
20190218110707 67 159 0.0 0.0 0.00 0.00 0.00 99 1011.2
20190218110207 67 149 0.0 0.0 0.00 0.00 0.00 99 1011.2
20190218105707 67 143 0.0 0.0 0.00 0.00 0.00 99 1011.2
20190218105207 67 177 0.0 0.0 0.00 0.00 0.00 99 1011.0
20190218104707 67 180 0.0 0.0 0.00 0.00 0.00 99 1011.0
20190218104207 67 158 0.0 0.0 0.00 0.00 0.00 99 1011.0
20190218103707 67 158 0.0 0.0 0.00 0.00 0.00 99 1010.9
20190218103208 67 158 0.0 0.0 0.00 0.00 0.00 99 1010.9
20190218102707 67 135 0.0 0.0 0.00 0.00 0.00 99 1010.8
20190218102207 67 135 0.0 0.0 0.00 0.00 0.00 99 1010.8
20190218101707 67 158 0.0 0.0 0.00 0.00 0.00 99 1010.8
20190218101207 67 158 0.0 0.0 0.00 0.00 0.00 99 1010.8
20190218100707 67 153 0.0 0.0 0.00 0.00 0.00 99 1010.8
20190218100207 67 150 0.0 0.0 0.00 0.00 0.00 99 1010.6
20190218095707 68 173 0.0 0.0 0.00 0.00 0.00 99 1010.6
20190218095207 68 156 0.0 0.0 0.00 0.00 0.00 99 1010.7
20190218094706 68 135 0.0 0.0 0.00 0.00 0.00 99 1010.7
20190218094207 68 192 0.0 0.0 0.00 0.00 0.00 99 1010.7
20190218093707 68 135 0.0 0.0 0.00 0.00 0.00 99 1010.6
20190218093206 68 177 0.0 0.0 0.00 0.00 0.00 99 1010.6
20190218092707 69 171 0.0 0.0 0.00 0.00 0.00 99 1010.6
20190218092207 69 184 0.0 0.0 0.00 0.00 0.00 99 1010.6
20190218091707 69 180 0.0 0.0 0.00 0.00 0.00 99 1010.6
20190218091207 69 177 0.0 0.0 0.00 0.00 0.00 99 1010.6
20190218090708 69 155 0.0 0.0 0.00 0.00 0.00 99 1010.6
20190218090207 69 147 0.0 0.0 0.00 0.00 0.00 99 1010.7
20190218085707 69 167 0.0 0.0 0.00 0.00 0.00 99 1010.7
20190218085207 69 156 0.0 0.0 0.00 0.00 0.00 99 1010.8
20190218084707 69 170 0.0 0.0 0.00 0.00 0.00 99 1010.8
20190218084207 69 152 0.0 0.0 0.00 0.00 0.00 99 1010.8
20190218083707 69 190 0.0 0.0 0.00 0.00 0.00 99 1010.7
20190218083207 69 198 0.0 0.0 0.00 0.00 0.00 99 1010.7
20190218082707 69 171 0.0 0.0 0.00 0.00 0.00 99 1010.7
20190218082207 69 180 0.0 0.0 0.00 0.00 0.00 99 1010.7
20190218081706 69 184 0.0 0.0 0.00 0.00 0.00 99 1010.7
20190218081207 68 169 0.0 0.0 0.00 0.00 0.00 99 1010.6
20190218080707 68 205 0.0 0.0 0.00 0.00 0.00 99 1010.6
20190218080206 67 186 0.0 0.0 0.00 0.00 0.00 99 1010.8
20190218075706 67 169 0.0 0.0 0.00 0.00 0.00 99 1010.8
20190218075207 66 202 0.0 0.0 0.00 0.00 0.00 99 1010.7
20190218074706 66 198 0.0 0.0 0.00 0.00 0.00 99 1010.7
20190218074207 65 161 0.0 0.0 0.00 0.00 0.00 99 1010.7
20190218073707 65 102 0.0 0.0 0.00 0.00 0.00 99 1010.8
20190218073207 65 127 0.0 0.0 0.00 0.00 0.00 99 1010.8
20190218072706 65 112 0.0 0.0 0.00 0.00 0.00 99 1010.9
20190218072207 65 112 0.0 0.0 0.00 0.00 0.00 99 1010.9
20190218071707 65 112 0.0 0.0 0.00 0.00 0.00 99 1011.0
20190218071207 65 112 0.0 0.0 0.00 0.00 0.00 99 1011.0
20190218070707 65 112 0.0 0.0 0.00 0.00 0.00 99 1011.0
20190218070207 65 112 0.0 0.0 0.00 0.00 0.00 99 1011.0
20190218065707 65 99 0.0 0.0 0.00 0.00 0.00 99 1011.0
20190218065207 65 129 0.0 0.0 0.00 0.00 0.00 99 1010.9
20190218064707 65 122 0.0 0.0 0.00 0.00 0.00 99 1010.9
20190218064207 65 158 0.0 0.0 0.00 0.00 0.00 99 1010.9
20190218063707 65 158 0.0 0.0 0.00 0.00 0.00 99 1010.8
20190218063207 65 159 0.0 0.0 0.00 0.00 0.00 99 1010.8
20190218062707 65 158 0.0 0.0 0.00 0.00 0.00 99 1010.9
20190218062206 65 141 0.0 0.0 0.00 0.00 0.00 99 1010.9
20190218061707 65 122 0.0 0.0 0.00 0.00 0.00 99 1010.9
20190218061207 65 118 0.0 0.0 0.00 0.00 0.00 99 1010.9
20190218060707 65 112 0.0 0.0 0.00 0.00 0.00 99 1010.9
20190218060206 65 122 0.0 0.0 0.00 0.00 0.00 99 1011.0
20190218055707 65 135 0.0 0.0 0.00 0.00 0.00 99 1011.0
20190218055207 66 148 0.0 0.0 0.00 0.00 0.00 99 1010.8
20190218054706 66 168 0.0 6.0 0.00 0.00 0.00 99 1010.8
20190218054207 66 201 0.0 0.0 0.00 0.00 0.00 99 1010.8
20190218053707 66 156 0.0 0.0 0.00 0.00 0.00 99 1010.9
20190218053207 66 167 0.0 0.0 0.00 0.00 0.00 99 1010.9
20190218052707 66 163 0.0 0.0 0.00 0.00 0.00 99 1010.8
20190218052207 66 164 0.0 0.0 0.00 0.00 0.00 99 1010.8
20190218051707 66 133 0.0 0.0 0.00 0.00 0.00 99 1010.8
20190218051207 66 128 0.0 0.0 0.00 0.00 0.00 99 1010.8
20190218050706 66 135 0.0 0.0 0.00 0.00 0.00 99 1010.8
20190218050207 66 124 0.0 0.0 0.00 0.00 0.00 99 1010.8
20190218045707 67 158 0.0 0.0 0.00 0.00 0.00 99 1010.8
20190218045207 67 160 0.0 0.0 0.00 0.00 0.00 99 1010.8
20190218044706 67 162 0.0 0.0 0.00 0.00 0.00 99 1010.8
20190218044207 67 158 0.0 0.0 0.00 0.00 0.00 99 1010.8
20190218043707 67 154 0.0 0.0 0.00 0.00 0.00 99 1010.8
20190218043206 66 147 0.0 0.0 0.00 0.00 0.00 99 1010.8
20190218042707 66 202 0.0 0.0 0.00 0.00 0.00 99 1010.8
20190218042207 66 220 0.0 0.0 0.00 0.00 0.00 99 1010.8
20190218041707 66 135 0.0 0.0 0.00 0.00 0.00 99 1010.5
20190218041207 66 158 0.0 0.0 0.00 0.00 0.00 99 1010.5
20190218040707 66 112 0.0 0.0 0.00 0.00 0.00 98 1010.5
20190218040207 66 152 0.0 0.0 0.00 0.00 0.00 95 1010.6
20190218035707 67 158 0.0 0.0 0.00 0.00 0.00 95 1010.6
20190218035207 67 135 0.0 0.0 0.00 0.00 0.00 95 1010.7
20190218034708 67 135 0.0 0.0 0.00 0.00 0.00 95 1010.7
20190218034207 67 158 0.0 0.0 0.00 0.00 0.00 95 1010.7
20190218033707 68 135 0.0 0.0 0.00 0.00 0.00 95 1010.7
20190218033207 68 112 0.0 0.0 0.00 0.00 0.00 95 1010.7
20190218032707 68 158 0.0 0.0 0.00 0.00 0.00 95 1010.7
20190218032207 68 180 0.0 0.0 0.00 0.00 0.00 95 1010.7
20190218031707 69 90 0.0 0.0 0.00 0.00 0.00 95 1010.7
20190218031207 69 90 0.0 0.0 0.00 0.00 0.00 94 1010.6
20190218030707 69 90 0.0 0.0 0.00 0.00 0.00 93 1010.6
20190218030207 69 90 0.0 0.0 0.00 0.00 0.00 92 1010.6